Regional Weather Roundup
Issued by NWS

Home | Current Version | Previous Version | Graphics & Text | Print | Product List | Glossary On
Versions: 1 2 3 4 5 6 7 8 9 10 11 12 13 14 15 16 17 18 19 20 21 22 23 24 25 26 27 28 29 30 31 32 33 34 35 36 37 38 39 40 41 42 43 44 45 46 47 48 49 50
674
ASUS45 KSLC 251510
RWRUT

UTAH REGIONAL WEATHER ROUNDUP
NATIONAL WEATHER SERVICE SALT LAKE CITY UT
800 AM MST SAT FEB 25 2017

UTZ001>011-023>025-251600-

NORTHERN UTAH

CITY           SKY/WX    TMP DP  RH WIND       PRES   REMARKS
BRIGHAM CITY     N/A     24  19  83 N5        30.08S WCI  18
HILL AFB       MOCLDY    18   9  69 E10       30.06R WCI   6
LOGAN          CLOUDY    19  14  81 CALM      30.07S
OGDEN          CLOUDY    19  12  74 S12       30.06S WCI   7
SALT LAKE CITY CLOUDY    24  15  68 SE10      30.08S WCI  14
TOOELE VALLEY  CLOUDY    25  18  74 S14       30.08R WCI  13
WENDOVER       MOCLDY    21  12  68 CALM      30.07S
HEBER CITY     CLOUDY     5   1  85 CALM      30.05S
WEST JORDAN    CLOUDY    25  21  85 S14       30.08R WCI  14

$$

UTZ011>015-024>027-251600-

CENTRAL/NORTHEAST UTAH

CITY           SKY/WX    TMP DP  RH WIND       PRES   REMARKS
PROVO AIRPORT  PTCLDY    17  10  74 SE5       30.11S WCI  10
MOAB/CANYONLAN SUNNY     22  12  65 CALM      30.09R
DELTA          CLOUDY    19  16  86 NE6       30.06S WCI  11
PRICE          MOSUNNY   17   9  70 NE3       30.03R
RICHFIELD      CLOUDY    14  10  85 CALM      30.10
ROOSEVELT      SUNNY     14   9  79 CALM      30.10R
VERNAL         CLOUDY     9   6  88 W3        30.07R

$$

UTZ013>016-019>022-027-251600-

SOUTHERN UTAH

CITY           SKY/WX    TMP DP  RH WIND       PRES   REMARKS
BRYCE CANYON   MOCLDY    -3  -7  82 CALM      30.00S
CEDAR CITY     CLOUDY    16  11  80 CALM      30.02S
MILFORD        CLOUDY    15  11  83 S6        30.04F WCI   6
ST GEORGE      MOSUNNY   29  21  72 CALM      30.13S
HANKSVILLE     SUNNY     18   5  57 CALM      30.14R
KANAB          CLEAR     25  12  58 N12       30.12  WCI  14
BLANDING       SUNNY     21  12  70 CALM      30.15R

$$

REGIONAL REPORTS     COLORADO/ARIZONA

CITY           SKY/WX    TMP DP  RH WIND       PRES   REMARKS
CRAIG, CO      CLOUDY    13   9  84 CALM      30.02S FOG
GRAND JUNCTION CLOUDY    20  15  81 SE6       30.09R WCI  12
RIFLE, CO      CLOUDY    11   8  88 E3        30.09R
MONTROSE, CO   SUNNY     16   7  67 SE7       30.11R WCI   6
CORTEZ, CO     PTSUNNY   16  10  77 CALM      30.09R
COLORADO CITY    N/A     25  19  80 E3        30.10R
PAGE, AZ       SUNNY     31   9  39 CALM      30.09S
GRAND CANYON   SUNNY     15  10  80 CALM      30.05S
KINGMAN, AZ    CLEAR     30  10  43 SE10      30.08R WCI  21
FLAGSTAFF, AZ  SUNNY     19  15  84 CALM      30.05R

$$

REGIONAL REPORTS    NEVADA/IDAHO/WYOMING

CITY           SKY/WX    TMP DP  RH WIND       PRES   REMARKS
LAS VEGAS, NV  PTCLDY    39  20  46 CALM      30.07R
ELY, NY        CLOUDY    12   7  80 SE3       30.01S
ELKO, NV       MOCLDY    20  11  68 NE3       30.05R
POCATELLO, ID  CLOUDY     6   2  83 CALM      30.05S
BURLEY, ID     CLEAR     18  10  71 W3        30.06R
FORT BRIDGER,    N/A      4  -2  75 W8        29.97S WCI  -9
EVANSTON, WY   CLOUDY     5  -1  76 SW10      29.94S WCI -10
ROCK SPRINGS,  CLOUDY     7  -1  70 W8        29.94F WCI  -6

$$




USA.gov is the U.S. government's official web portal to all federal, state and local government web resources and services.